Cedar Falls, IA

11:24 PM CST on February 06, 2016 (GMT -0600)
Waterloo Municipal

Weather History for KALO - July, 2013

Change the Weather History Date:

Thursday, July 25, 2013

  Actual Average Record
Temperature  
Mean Temperature 71 °F 73 °F  
Max Temperature 85 °F 84 °F 104 °F (2012)
Min Temperature 57 °F 63 °F 46 °F (2004)
Degree Days  
Heating Degree Days 0 0  
Month to date heating degree days 0 0  
Since 1 June heating degree days 38 26  
Since 1 July heating degree days 0 0  
Cooling Degree Days 6 8  
Month to date cooling degree days 247 223  
Year to date cooling degree days 468 456  
Since 1 June cooling degree days 415 400  
Growing Degree Days 20 (Base 50)    
Moisture  
Dew Point 61 °F    
Average Humidity 69    
Maximum Humidity 93    
Minimum Humidity 44    
Precipitation  
Precipitation 3.09 in 0.15 in 3.09 in (2013)
Month to date precipitation 4.00 4.06  
Year to date precipitation 32.26 21.16  
Snow  
Snow 0.00 in 0.00 in - ()
Month to date snowfall 0.0 0.0  
Since 1 June snowfall 0.0 0.0  
Since 1 July snowfall 0.0 0.0  
Snow Depth 0.00 in    
Sea Level Pressure  
Sea Level Pressure 30.00 in    
Wind  
Wind Speed 9 mph (SSE)    
Max Wind Speed 29 mph    
Max Gust Speed 37 mph    
Visibility 7 miles    
Events Rain , Thunderstorm    
T = Trace of Precipitation, MM = Missing Value Source: NWS Daily Summary

Daily Weather History Graph

Daily Weather History Graph

Search for Another Location

Airport or City:

Trip Planner

Search our weather history database for the weather conditions in past years. The results will help you decide how hot, cold, wet, or windy it might be!

Date:

Astronomy

Jul. 25, 2013 Rise Set
Actual Time 5:54 AM CDT 8:36 PM CDT
Civil Twilight 5:22 AM CDT 9:09 PM CDT
Nautical Twilight 4:41 AM CDT 9:50 PM CDT
Astronomical Twilight 3:54 AM CDT 10:36 PM CDT
Moon 10:11 PM CDT (7/25) 9:30 AM CDT (7/25)
Length of Visible Light 15h 47m
Length of Day
14h 41m
Waning Gibbous, 88% of the Moon is Illuminated
Jul 25
Waning Gibbous
Jul 29
Last Quarter
Aug 6
New
Aug 14
First Quarter
Aug 20
Full

Hourly Weather History & Observations

Time (CDT) Temp. Heat Index Dew Point Humidity Pressure Visibility Wind Dir Wind Speed Gust Speed Precip Events Conditions
12:54 AM 63.0 °F - 55.9 °F 78% 30.03 in 10.0 mi Calm Calm - N/A   Clear
1:54 AM 62.1 °F - 55.9 °F 80% 30.02 in 10.0 mi Calm Calm - N/A   Clear
2:54 AM 62.1 °F - 55.9 °F 80% 30.03 in 10.0 mi Calm Calm - N/A   Clear
3:54 AM 59.0 °F - 55.0 °F 87% 30.02 in 10.0 mi Calm Calm - N/A   Clear
4:54 AM 57.9 °F - 54.0 °F 87% 30.03 in 10.0 mi Calm Calm - N/A   Clear
5:54 AM 57.9 °F - 55.0 °F 90% 30.03 in 10.0 mi SE 4.6 mph - N/A   Clear
6:54 AM 61.0 °F - 57.0 °F 87% 30.02 in 10.0 mi SSE 3.5 mph - N/A   Clear
7:54 AM 66.0 °F - 59.0 °F 78% 30.04 in 10.0 mi SW 6.9 mph - N/A   Clear
8:54 AM 71.1 °F - 61.0 °F 70% 30.04 in 10.0 mi WSW 9.2 mph - N/A   Clear
9:54 AM 75.0 °F - 62.1 °F 64% 30.03 in 10.0 mi WSW 9.2 mph - N/A   Clear
10:54 AM 79.0 °F - 63.0 °F 58% 30.04 in 10.0 mi WSW 9.2 mph - N/A   Clear
11:54 AM 81.0 °F 82.2 °F 63.0 °F 54% 30.03 in 10.0 mi SW 12.7 mph - N/A   Clear
12:54 PM 82.9 °F 83.3 °F 61.0 °F 47% 30.02 in 10.0 mi WSW 6.9 mph 19.6 mph N/A   Partly Cloudy
1:54 PM 82.0 °F 82.7 °F 61.0 °F 49% 30.00 in 10.0 mi SW 10.4 mph - N/A   Partly Cloudy
2:54 PM 84.0 °F 84.0 °F 60.1 °F 44% 29.97 in 10.0 mi SSW 12.7 mph 20.7 mph N/A   Partly Cloudy
3:54 PM 82.0 °F 82.4 °F 60.1 °F 47% 29.96 in 10.0 mi SSW 16.1 mph - N/A   Clear
4:54 PM 84.9 °F 84.8 °F 60.1 °F 43% 29.96 in 10.0 mi South 11.5 mph - N/A   Clear
5:54 PM 82.0 °F 82.4 °F 60.1 °F 47% 29.95 in 10.0 mi South 9.2 mph 19.6 mph N/A   Partly Cloudy
6:40 PM 80.6 °F 81.5 °F 60.8 °F 51% 29.93 in 10.0 mi South 13.8 mph - N/A Thunderstorm Mostly Cloudy
6:54 PM 78.1 °F - 62.1 °F 58% 29.94 in 10.0 mi SSW 10.4 mph - 0.00 in Rain , Thunderstorm Light Rain
7:13 PM 69.8 °F - 66.2 °F 88% 29.96 in 1.8 mi WSW 9.2 mph 27.6 mph 0.13 in Rain , Thunderstorm Heavy Thunderstorms and Rain
7:31 PM 66.2 °F - 64.4 °F 94% 29.99 in 1.2 mi NE 15.0 mph - 0.84 in Rain , Thunderstorm Heavy Thunderstorms and Rain
7:47 PM 64.4 °F - 62.6 °F 94% 30.00 in 2.5 mi ENE 23.0 mph 36.8 mph 1.24 in Rain , Thunderstorm Heavy Thunderstorms and Rain
7:54 PM 64.9 °F - 62.1 °F 90% 29.98 in 5.0 mi NNE 23.0 mph 31.1 mph 1.26 in Rain , Thunderstorm Thunderstorms and Rain
8:02 PM 62.6 °F - 62.6 °F 100% 30.01 in 3.0 mi North 16.1 mph 28.8 mph 0.11 in Rain , Thunderstorm Heavy Thunderstorms and Rain
8:04 PM 62.6 °F - 62.6 °F 100% 30.02 in 2.5 mi North 16.1 mph 25.3 mph 0.15 in Rain , Thunderstorm Heavy Thunderstorms and Rain
8:14 PM 62.6 °F - 62.6 °F 100% 30.00 in 1.2 mi NNE 16.1 mph 19.6 mph 0.50 in Rain , Thunderstorm Heavy Thunderstorms and Rain
8:23 PM 62.6 °F - 62.6 °F 100% 30.01 in 2.0 mi North 13.8 mph - 0.71 in Rain , Thunderstorm Heavy Thunderstorms and Rain
8:31 PM 62.6 °F - 62.6 °F 100% 30.01 in 3.0 mi North 11.5 mph 20.7 mph 0.76 in Rain , Thunderstorm Heavy Thunderstorms and Rain
8:50 PM 64.4 °F - 62.6 °F 94% 29.99 in 4.0 mi East 18.4 mph - 0.88 in Rain , Thunderstorm Heavy Rain
8:54 PM 64.9 °F - 63.0 °F 93% 29.98 in 5.0 mi ESE 15.0 mph - 0.90 in Rain , Thunderstorm Heavy Rain
8:56 PM 64.4 °F - 62.6 °F 94% 29.99 in 5.0 mi ESE 20.7 mph 28.8 mph 0.01 in Rain Heavy Rain
9:54 PM 66.0 °F - 64.0 °F 93% 30.01 in 9.0 mi SE 10.4 mph - 0.19 in Rain Light Rain
10:37 PM 66.2 °F - 64.4 °F 94% 30.03 in 7.0 mi ESE 5.8 mph - 0.11 in Rain Rain
10:54 PM 66.0 °F - 64.9 °F 96% 30.01 in 9.0 mi SE 8.1 mph - 0.16 in Rain Rain
11:29 PM 66.2 °F - 64.4 °F 94% 30.03 in 2.0 mi SSE 5.8 mph - 0.21 in Rain , Thunderstorm Heavy Thunderstorms and Rain
11:33 PM 66.2 °F - 64.4 °F 94% 30.03 in 1.8 mi South 4.6 mph - 0.29 in Rain , Thunderstorm Heavy Thunderstorms and Rain
11:35 PM 66.2 °F - 64.4 °F 94% 30.03 in 2.0 mi SSE 5.8 mph - 0.32 in Rain , Thunderstorm Heavy Thunderstorms and Rain
11:44 PM 66.2 °F - 64.4 °F 94% 30.02 in 2.0 mi SSE 6.9 mph - 0.46 in Rain Heavy Rain
11:50 PM 64.4 °F - 64.4 °F 100% 30.02 in 3.0 mi SSE 5.8 mph - 0.53 in Rain Heavy Rain
11:51 PM 66.0 °F - 64.9 °F 96% 30.01 in 3.0 mi SSE 6.9 mph - 0.53 in Rain Heavy Rain